Regional Weather Roundup
Issued by NWS

Home | Current Version | Previous Version | Text Only | Print | Product List | Glossary On
Versions: 1 2 3 4 5 6 7 8 9 10 11 12 13 14 15 16 17 18 19 20 21 22 23 24 25 26 27 28 29 30 31 32 33 34 35 36 37 38 39 40 41 42 43 44 45 46 47 48 49 50
000
ASUS44 KJAN 281903
RWRMS

MISSISSIPPI HOURLY WEATHER ROUNDUP
NATIONAL WEATHER SERVICE JACKSON MS
200 PM CDT THU JUL 28 2016

NOTE: "FAIR: INDICATES FEW OR NO CLOUDS BELOW 12,000 FEET WITH NO
SIGNIFICANT WEATHER AND/OR OBSTRUCTIONS TO VISIBILITY.

MSZ001>002-007>008-010>013-018>021-025>028-034>036-282000-
NORTHWEST MISSISSIPPI

CITY           SKY/WX    TMP DP  RH WIND       PRES   REMARKS
CLEVELAND      CLOUDY    83  82  97 SW15      29.99F HX  97
GREENWOOD      LGT RAIN  77  73  87 SW12      30.01S FOG
GREENVILLE     LGT RAIN  78  73  84 SW12      30.01R
OXFORD         PTSUNNY   82  72  69 W9G17     30.00S
WINONA         LGT RAIN  75  74  96 SW6       30.02S
$$

MSZ003>006-009-014>017-022>024-029>033-037>039-282000-
NORTHEAST MISSISSIPPI

CITY           SKY/WX    TMP DP  RH WIND       PRES   REMARKS
ABERDEEN       DRIZZLE   79  61  53 W7        30.00R
COLUMBUS AFB   NOT AVBL
GOLDN TRIANGLE PTSUNNY   82  72  69 SW9       29.99F
TUPELO           N/A     87  73  62 MISG      29.96F HX  94
$$

MSZ040-058-282000-
CENTRAL MISSISSIPPI

CITY           SKY/WX    TMP DP  RH WIND       PRES   REMARKS
JACKSON INTL   CLOUDY    80  73  79 W7        30.03F
JACKSON HAWKNS PTSUNNY   78  73  84 W7        30.04
MADISON        FAIR      75  72  88 W7        30.04S
MERIDIAN KEY   TSTM      76  68  76 SW14G25   30.04R VSB 1
MERIDIAN NAS   PTSUNNY   91  70  49 W13G22    30.02F HX  96
VICKSBURG VKS  PTCLDY    77  73  88 CALM      30.04F
$$

MSZ059>079-282000-
SOUTH MISSISSIPPI

CITY           SKY/WX    TMP DP  RH WIND       PRES   REMARKS
BROOKHAVEN     MOCLDY   N/A N/A N/A SW3       30.07
COLUMBIA       MOCLDY    90  73  58 VRB6      30.06F HX  98
HATTIESBURG    MOSUNNY   91  73  55 SW6       30.03F HX  99
MCCOMB         MOSUNNY   89  72  56 VRB7      30.04F HX  96
NATCHEZ        CLOUDY    79  72  78 N5        30.06R
PINE BELT      MOSUNNY   90  73  58 SW8       30.05F HX  98
$$

MSZ080>082-282000-
COASTAL MISSISSIPPI

CITY           SKY/WX    TMP DP  RH WIND       PRES   REMARKS
BAY ST LOUIS   MOSUNNY   91  66  43 SW8       30.03F HX  94
BILOXI         SUNNY     89  79  70 S9        30.03  HX 104
PASCAGOULA     SUNNY     90  77  65 S10       30.04F HX 103
GULFPORT       MOSUNNY   89  77  67 S10       30.03F HX 101
$$

LAZ007>009-015>016-023>026-282000-
NORTHEAST LOUISIANA

CITY           SKY/WX    TMP DP  RH WIND       PRES   REMARKS
BASTROP        RAIN      74  73  98 S3        30.05F
TALLULAH/VBURG CLOUDY    77  73  87 W3        30.04F
VIDALIA        MOCLDY    79  75  89 E5        30.08R
$$




USA.gov is the U.S. government's official web portal to all federal, state and local government web resources and services.